When you browse on this site, cookies collect data to enhance your experience and personalize the content and advertising you see.
Visit our Privacy Policy to learn more. By continuing to use the site, you agree to this use of cookies and data.
  • In Österreich
  • Länderverzeichnis
  • Für 7 Tage
  • Wassertemperatur
  • Satellitenkarten
  • Wetterkarte
  • News
  • Widgets
  • user-avatar
    Anmelden

    Stündliche Wetter Rondônia

    Heute, 17 Februar, Sonntag

    Zeit Temperatur Niederschläge Wind Luftdruck Luftfeuchtigkeit
    00:00 +22°C° 0.1 mm 0 m/S 739 mmHg 98%
    01:00 +22°C° 0.1 mm 0 m/S 739 mmHg 98%
    02:00 +22°C° 0.1 mm 0 m/S 738 mmHg 99%
    03:00 +22°C° 0.9 mm 0 m/S 738 mmHg 99%
    04:00 +22°C° 0.9 mm 0 m/S 738 mmHg 99%
    05:00 +22°C° 0.9 mm 0 m/S 738 mmHg 99%
    06:00 +22°C° 1.1 mm 0 m/S 738 mmHg 99%
    07:00 +23°C° 1.1 mm 0 m/S 739 mmHg 98%
    08:00 +23°C° 1.1 mm 0 m/S 739 mmHg 98%
    09:00 +24°C° 1 mm 0 m/S 739 mmHg 96%
    10:00 +25°C° 1 mm 0 m/S 740 mmHg 94%
    11:00 +28°C° 1 mm 1 m/S 740 mmHg 92%
    12:00 +29°C° 1.7 mm 1 m/S 739 mmHg 91%
    13:00 +29°C° 1.7 mm 1 m/S 738 mmHg 90%
    14:00 +30°C° 1.7 mm 1 m/S 738 mmHg 89%
    15:00 +30°C° 1.5 mm 1 m/S 737 mmHg 87%
    16:00 +30°C° 1.5 mm 1 m/S 737 mmHg 85%
    17:00 +28°C° 1.5 mm 0 m/S 736 mmHg 84%
    18:00 +27°C° 3.8 mm 0 m/S 737 mmHg 88%
    19:00 +25°C° 3.8 mm 0 m/S 737 mmHg 92%
    20:00 +24°C° 3.8 mm 0 m/S 737 mmHg 96%
    21:00 +23°C° 1.5 mm 0 m/S 738 mmHg 97%
    22:00 +23°C° 1.5 mm 0 m/S 738 mmHg 97%
    23:00 +25°C° 1.5 mm 1 m/S 739 mmHg 98%

    Morgen, 18 Februar, Montag

    Zeit Temperatur Niederschläge Wind Luftdruck Luftfeuchtigkeit
    00:00 +23°C° 0.1 mm 0 m/S 739 mmHg 98%
    01:00 +22°C° 0.1 mm 0 m/S 738 mmHg 98%
    02:00 +22°C° 0.1 mm 0 m/S 738 mmHg 98%
    03:00 +22°C° 0 mm 0 m/S 737 mmHg 98%
    04:00 +22°C° 0 mm 0 m/S 737 mmHg 98%
    05:00 +22°C° 0 mm 0 m/S 737 mmHg 98%
    06:00 +22°C° 0 mm 0 m/S 738 mmHg 97%
    07:00 +23°C° 0 mm 0 m/S 738 mmHg 95%
    08:00 +24°C° 0 mm 0 m/S 739 mmHg 94%
    09:00 +28°C° 0.1 mm 1 m/S 739 mmHg 79%
    10:00 +31°C° 0.1 mm 2 m/S 740 mmHg 64%
    11:00 +34°C° 0.1 mm 2 m/S 740 mmHg 50%
    12:00 +35°C° 0 mm 2 m/S 739 mmHg 47%
    13:00 +36°C° 0 mm 2 m/S 738 mmHg 45%
    14:00 +37°C° 0 mm 2 m/S 737 mmHg 42%
    15:00 +35°C° 0.5 mm 2 m/S 736 mmHg 55%
    16:00 +31°C° 0.5 mm 1 m/S 736 mmHg 68%
    17:00 +29°C° 0.5 mm 1 m/S 735 mmHg 82%
    18:00 +28°C° 0.5 mm 1 m/S 736 mmHg 86%
    19:00 +27°C° 0.5 mm 1 m/S 736 mmHg 91%
    20:00 +23°C° 0.5 mm 0 m/S 737 mmHg 96%
    21:00 +23°C° 0 mm 0 m/S 738 mmHg 96%
    22:00 +23°C° 0 mm 0 m/S 738 mmHg 96%
    23:00 +23°C° 0 mm 0 m/S 739 mmHg 97%

    übermorgen, 19 Februar, Dienstag

    Zeit Temperatur Niederschläge Wind Luftdruck Luftfeuchtigkeit
    00:00 +23°C° 0 mm 0 m/S 738 mmHg 97%
    01:00 +23°C° 0 mm 0 m/S 738 mmHg 97%
    02:00 +23°C° 0 mm 0 m/S 737 mmHg 98%
    03:00 +23°C° 0 mm 0 m/S 737 mmHg 97%
    04:00 +23°C° 0 mm 0 m/S 737 mmHg 97%
    05:00 +23°C° 0 mm 0 m/S 737 mmHg 97%
    06:00 +23°C° 0.1 mm 0 m/S 738 mmHg 96%
    07:00 +24°C° 0.1 mm 0 m/S 738 mmHg 95%
    08:00 +24°C° 0.1 mm 0 m/S 739 mmHg 94%
    09:00 +27°C° 1.1 mm 1 m/S 739 mmHg 92%
    10:00 +28°C° 1.1 mm 1 m/S 739 mmHg 91%
    11:00 +29°C° 1.1 mm 1 m/S 740 mmHg 90%
    12:00 +29°C° 1.3 mm 1 m/S 739 mmHg 89%
    13:00 +29°C° 1.3 mm 1 m/S 738 mmHg 88%
    14:00 +30°C° 1.3 mm 1 m/S 737 mmHg 86%
    15:00 +29°C° 1 mm 1 m/S 737 mmHg 88%
    16:00 +27°C° 1 mm 0 m/S 736 mmHg 90%
    17:00 +27°C° 1 mm 0 m/S 736 mmHg 92%
    18:00 +26°C° 1 mm 0 m/S 736 mmHg 94%
    19:00 +25°C° 1 mm 0 m/S 737 mmHg 95%
    20:00 +26°C° 1 mm 1 m/S 737 mmHg 97%
    21:00 +25°C° 0.6 mm 1 m/S 738 mmHg 97%
    22:00 +25°C° 0.6 mm 1 m/S 738 mmHg 98%
    23:00 +25°C° 0.6 mm 1 m/S 739 mmHg 98%

    20 Februar, Mittwoch

    Zeit Temperatur Niederschläge Wind Luftdruck Luftfeuchtigkeit
    00:00 +23°C° 1.3 mm 0 m/S 739 mmHg 98%
    01:00 +23°C° 1.3 mm 0 m/S 738 mmHg 98%
    02:00 +23°C° 1.3 mm 0 m/S 738 mmHg 99%
    03:00 +23°C° 0.9 mm 0 m/S 738 mmHg 99%
    04:00 +23°C° 0.9 mm 0 m/S 738 mmHg 98%
    05:00 +22°C° 0.9 mm 0 m/S 737 mmHg 98%
    06:00 +23°C° 0.1 mm 0 m/S 738 mmHg 98%
    07:00 +23°C° 0.1 mm 0 m/S 739 mmHg 97%
    08:00 +24°C° 0.1 mm 0 m/S 739 mmHg 97%
    09:00 +25°C° 1 mm 0 m/S 739 mmHg 94%
    10:00 +26°C° 1 mm 0 m/S 739 mmHg 92%
    11:00 +29°C° 1 mm 1 m/S 739 mmHg 90%
    12:00 +29°C° 1.4 mm 1 m/S 739 mmHg 88%
    13:00 +29°C° 1.4 mm 1 m/S 738 mmHg 87%
    14:00 +30°C° 1.4 mm 1 m/S 737 mmHg 85%
    15:00 +29°C° 1 mm 1 m/S 737 mmHg 88%
    16:00 +28°C° 1 mm 1 m/S 736 mmHg 91%
    17:00 +28°C° 1 mm 1 m/S 736 mmHg 94%
    18:00 +27°C° 0.3 mm 1 m/S 736 mmHg 95%
    19:00 +26°C° 0.3 mm 1 m/S 737 mmHg 96%
    20:00 +25°C° 0.3 mm 1 m/S 737 mmHg 98%
    21:00 +25°C° 0 mm 1 m/S 738 mmHg 98%
    22:00 +22°C° 0 mm 0 m/S 738 mmHg 98%
    23:00 +22°C° 0 mm 0 m/S 739 mmHg 98%

    21 Februar, Donnerstag

    Zeit Temperatur Niederschläge Wind Luftdruck Luftfeuchtigkeit
    00:00 +22°C° 0 mm 0 m/S 738 mmHg 98%
    01:00 +22°C° 0 mm 0 m/S 738 mmHg 98%
    02:00 +22°C° 0 mm 0 m/S 738 mmHg 98%
    03:00 +22°C° 0 mm 0 m/S 738 mmHg 98%
    04:00 +22°C° 0 mm 0 m/S 738 mmHg 98%
    05:00 +22°C° 0 mm 0 m/S 738 mmHg 98%
    06:00 +22°C° 0 mm 0 m/S 738 mmHg 97%
    07:00 +23°C° 0 mm 0 m/S 739 mmHg 96%
    08:00 +23°C° 0 mm 0 m/S 740 mmHg 95%
    09:00 +24°C° 0.5 mm 0 m/S 740 mmHg 93%
    10:00 +25°C° 0.5 mm 0 m/S 740 mmHg 90%
    11:00 +28°C° 0.5 mm 1 m/S 740 mmHg 88%
    12:00 +29°C° 0.7 mm 1 m/S 740 mmHg 84%
    13:00 +29°C° 0.7 mm 1 m/S 739 mmHg 80%
    14:00 +30°C° 0.7 mm 1 m/S 738 mmHg 76%
    15:00 +30°C° 0.2 mm 1 m/S 738 mmHg 76%
    16:00 +30°C° 0.2 mm 1 m/S 737 mmHg 75%
    17:00 +30°C° 0.2 mm 1 m/S 736 mmHg 75%
    18:00 +26°C° 0 mm 0 m/S 737 mmHg 79%
    19:00 +25°C° 0 mm 0 m/S 737 mmHg 83%
    20:00 +24°C° 0 mm 0 m/S 738 mmHg 86%
    21:00 +23°C° 0 mm 0 m/S 738 mmHg 87%
    22:00 +23°C° 0 mm 0 m/S 738 mmHg 88%
    23:00 +23°C° 0 mm 0 m/S 739 mmHg 89%

    22 Februar, Freitag

    Zeit Temperatur Niederschläge Wind Luftdruck Luftfeuchtigkeit
    00:00 +22°C° 0.1 mm 0 m/S 739 mmHg 91%
    01:00 +22°C° 0.1 mm 0 m/S 738 mmHg 93%
    02:00 +22°C° 0.1 mm 0 m/S 738 mmHg 95%
    03:00 +22°C° 0.3 mm 0 m/S 738 mmHg 96%
    04:00 +22°C° 0.3 mm 0 m/S 738 mmHg 97%
    05:00 +22°C° 0.3 mm 0 m/S 738 mmHg 98%
    06:00 +22°C° 0.4 mm 0 m/S 739 mmHg 97%
    07:00 +22°C° 0.4 mm 0 m/S 739 mmHg 97%
    08:00 +23°C° 0.4 mm 0 m/S 740 mmHg 97%
    09:00 +23°C° 0.7 mm 0 m/S 740 mmHg 95%
    10:00 +24°C° 0.7 mm 0 m/S 740 mmHg 93%
    11:00 +25°C° 0.7 mm 0 m/S 740 mmHg 92%
    12:00 +25°C° 0.7 mm 0 m/S 739 mmHg 90%
    13:00 +26°C° 0.7 mm 0 m/S 739 mmHg 89%
    14:00 +28°C° 0.7 mm 1 m/S 738 mmHg 88%
    15:00 +26°C° 0.6 mm 0 m/S 737 mmHg 87%
    16:00 +26°C° 0.6 mm 0 m/S 737 mmHg 86%
    17:00 +26°C° 0.6 mm 0 m/S 737 mmHg 85%
    18:00 +25°C° 0.2 mm 0 m/S 737 mmHg 89%
    19:00 +24°C° 0.2 mm 0 m/S 737 mmHg 92%
    20:00 +23°C° 0.2 mm 0 m/S 738 mmHg 96%
    21:00 +23°C° 0 mm 0 m/S 738 mmHg 96%
    22:00 +23°C° 0 mm 0 m/S 739 mmHg 97%
    23:00 +23°C° 0 mm 0 m/S 739 mmHg 97%
    Mehr zeigen